Terug naar catalogus

COSMOS 252 DEB

ActiefLEO
NORAD 19294·DEBRIS·🇷🇺 Russia

Gelanceerd Nov 1, 1968 vanaf Baikonur Cosmodrome

Loading…

Volgende Passages (komende 24 uur)

TLE

VersSource: Space-Track

Epoch: Sep 14, 2026, 13:48 UTC

1 19294U 68097EE  26257.57507892  .00000439  00000-0  53219-3 0  9999
2 19294  62.2425 103.9431 0621815 339.7928  17.9407 13.14386724817028

Volg COSMOS 252 DEB in realtime met AllMySat

Download on the App Store